FW7166 Weather Reports


time (UTC)temp
F
wind
direction
speed
knots
gust
knots
rain 1hr
in
rain 24hr
in
rain mn
in
humidity
%
barometer
mb
20260502163445 71 197 2.6 9.6 0.00 0.00 0.00 29 1014.5
20260502162945 71 184 2.6 9.6 0.00 0.00 0.00 29 1014.2
20260502162444 71 191 1.7 9.6 0.00 0.00 0.00 29 1014.4
20260502160912 71 224 2.6 11.3 0.00 0.00 0.00 28 1014.1
20260502160411 71 218 3.5 11.3 0.00 0.00 0.00 28 1014.8
20260502151851 72 177 2.6 9.6 0.00 0.00 0.00 27 1015.2
20260502151351 72 183 3.5 9.6 0.00 0.00 0.00 28 1014.9
20260502150851 72 195 2.6 10.4 0.00 0.00 0.00 28 1015.1
20260502150350 73 180 3.5 11.3 0.00 0.00 0.00 27 1015.7
20260502130213 73 212 4.3 11.3 0.00 0.00 0.00 31 1016.1
20260502123712 73 213 5.2 13.0 0.00 0.00 0.00 30 1016.7
20260502123212 73 203 4.3 13.0 0.00 0.00 0.00 30 1016.6
20260502122712 73 229 5.2 13.0 0.00 0.00 0.00 31 1017.0
20260502122211 73 243 3.5 13.9 0.00 0.00 0.00 31 1016.5
20260502121710 73 220 3.5 13.9 0.00 0.00 0.00 32 1016.5
20260502121210 73 209 5.2 14.8 0.00 0.00 0.00 32 1016.8
20260502120710 73 223 6.1 14.8 0.00 0.00 0.00 32 1017.0
20260502120209 73 189 3.5 11.3 0.00 0.00 0.00 33 1017.4
20260502115708 73 204 3.5 12.2 0.00 0.00 0.00 34 1017.3
20260502115208 73 158 3.5 12.2 0.00 0.00 0.00 35 1017.3
20260502114708 73 168 4.3 10.4 0.00 0.00 0.00 34 1017.3
20260502114208 73 205 2.6 10.4 0.00 0.00 0.00 33 1017.1
20260502113152 73 149 3.5 10.4 0.00 0.00 0.00 33 1017.4
20260502112135 73 172 4.3 11.3 0.00 0.00 0.00 33 1017.6
20260502111635 73 183 4.3 11.3 0.00 0.00 0.00 34 1017.4
20260502111134 72 191 3.5 11.3 0.00 0.00 0.00 35 1017.7
20260502110634 72 167 5.2 11.3 0.00 0.00 0.00 34 1017.5
20260502105104 72 212 4.3 12.2 0.00 0.00 0.00 34 1018.0
20260502104603 72 199 4.3 13.0 0.00 0.00 0.00 34 1017.5
20260502104103 72 190 4.3 13.0 0.00 0.00 0.00 34 1018.1
20260502103047 73 172 1.7 17.4 0.00 0.00 0.00 36 1017.8
20260502102547 72 206 1.7 17.4 0.00 0.00 0.00 36 1018.0
20260502101532 72 178 2.6 9.6 0.00 0.00 0.00 37 1017.9
20260502101031 72 159 4.3 9.6 0.00 0.00 0.00 38 1018.2
20260502100530 72 167 2.6 9.6 0.00 0.00 0.00 38 1018.4
20260502091513 70 139 2.6 9.6 0.00 0.00 0.00 40 1019.0
20260502091013 69 211 2.6 9.6 0.00 0.00 0.00 41 1018.6
20260502071434 63 162 1.7 9.6 0.00 0.00 0.00 48 1019.6
20260502070933 63 145 1.7 9.6 0.00 0.00 0.00 50 1019.7
20260502070433 62 157 1.7 9.6 0.00 0.00 0.00 51 1019.7
20260502065933 62 178 0.9 9.6 0.00 0.00 0.00 51 1019.9
20260502064918 60 195 0.0 9.6 0.00 0.00 0.00 52 1020.2
20260502064417 60 166 0.9 9.6 0.00 0.00 0.00 53 1020.0
20260502063917 59 159 0.9 9.6 0.00 0.00 0.00 54 1020.3
20260502062900 58 187 0.9 9.6 0.00 0.00 0.00 56 1020.5
20260502062359 57 143 0.9 9.6 0.00 0.00 0.00 57 1020.2
20260502060842 55 97 0.9 9.6 0.00 0.00 0.00 60 1020.7
20260502060343 54 163 0.9 9.6 0.00 0.00 0.00 60 1020.7
20260502055841 54 108 0.9 9.6 0.00 0.00 0.00 61 1020.4
20260502055340 53 92 0.0 9.6 0.00 0.00 0.00 62 1020.6
20260502054840 52 92 0.0 9.6 0.00 0.00 0.00 63 1020.6
20260502054340 52 137 0.9 9.6 0.00 0.00 0.00 64 1020.7
20260502053323 50 146 0.0 9.6 0.00 0.00 0.00 69 1020.6
20260502052823 49 146 0.0 9.6 0.00 0.00 0.00 71 1020.8
20260502052323 48 146 0.0 9.6 0.00 0.00 0.00 72 1020.9
20260502051308 47 147 0.0 9.6 0.00 0.00 0.00 75 1021.1
20260502050808 46 147 0.9 9.6 0.00 0.00 0.00 77 1020.9
20260502050308 45 136 0.9 9.6 0.00 0.00 0.00 79 1021.2
20260502045808 43 146 0.9 9.6 0.00 0.00 0.00 81 1021.1
20260502045308 42 191 0.0 9.6 0.00 0.00 0.00 81 1021.4
20260502044808 41 191 0.0 9.6 0.00 0.00 0.00 80 1021.5
20260502044307 41 191 0.0 9.6 0.00 0.00 0.00 80 1021.5
20260502043807 40 191 0.0 9.6 0.00 0.00 0.00 81 1021.4
20260502043306 39 191 0.0 9.6 0.00 0.00 0.00 81 1021.7
20260502042250 39 191 0.0 9.6 0.00 0.00 0.00 82 1021.7
20260502041749 38 191 0.0 9.6 0.00 0.00 0.00 82 1021.8
20260502041249 38 191 0.0 9.6 0.00 0.00 0.00 81 1021.8
20260502040749 38 191 0.0 9.6 0.00 0.00 0.00 81 1022.0
20260502040248 38 191 0.0 9.6 0.00 0.00 0.00 81 1022.1
20260502035747 38 191 0.0 9.6 0.00 0.00 0.00 81 1022.1
20260502035246 38 191 0.0 9.6 0.00 0.00 0.00 81 1022.1
20260502034746 38 191 0.0 9.6 0.00 0.00 0.00 81 1022.1
20260502033730 38 191 0.0 9.6 0.00 0.00 0.00 80 1022.5
20260502031644 38 191 0.0 9.6 0.00 0.00 0.00 80 1022.4
20260502031144 39 191 0.0 9.6 0.00 0.00 0.00 80 1022.5
20260502030644 39 191 0.0 9.6 0.00 0.00 0.00 80 1022.6
20260502030144 39 191 0.0 9.6 0.00 0.00 0.00 79 1022.6
20260502025129 39 191 0.0 9.6 0.00 0.00 0.00 79 1022.4
20260502024628 39 191 0.0 9.6 0.00 0.00 0.00 79 1022.5
20260502024128 40 191 0.0 9.6 0.00 0.00 0.00 80 1022.7
20260502023627 40 191 0.0 9.6 0.00 0.00 0.00 80 1022.6
20260502023126 40 191 0.0 9.6 0.00 0.00 0.00 79 1022.6
20260502022626 40 191 0.0 9.6 0.00 0.00 0.00 79 1022.8
20260502022126 40 191 0.0 9.6 0.00 0.00 0.00 78 1022.9
20260502021110 40 191 0.0 9.6 0.00 0.00 0.00 77 1022.8
20260502020610 41 191 0.0 9.6 0.00 0.00 0.00 77 1022.8
20260502020110 41 191 0.0 9.6 0.00 0.00 0.00 76 1022.9
20260502015610 41 191 0.0 9.6 0.00 0.00 0.00 77 1022.9
20260502015110 41 191 0.0 9.6 0.00 0.00 0.00 77 1023.3
20260502014610 41 191 0.0 9.6 0.00 0.00 0.00 77 1023.1
20260502014109 41 191 0.0 9.6 0.00 0.00 0.00 78 1023.2
20260502013608 41 191 0.0 9.6 0.00 0.00 0.00 78 1023.3
20260502013107 41 191 0.0 9.6 0.00 0.00 0.00 77 1023.4
20260502012607 41 191 0.0 9.6 0.00 0.00 0.00 77 1023.5
20260502011551 42 191 0.0 9.6 0.00 0.00 0.00 76 1023.4
20260502011051 42 191 0.0 9.6 0.00 0.00 0.00 76 1023.5
20260502010551 42 191 0.0 9.6 0.00 0.00 0.00 76 1023.7
20260502010050 42 191 0.0 9.6 0.00 0.00 0.00 76 1023.6
20260502005550 42 191 0.0 9.6 0.00 0.00 0.00 76 1023.6
20260502005050 42 191 0.0 9.6 0.00 0.00 0.00 76 1023.9
20260502004549 42 191 0.0 9.6 0.00 0.00 0.00 77 1023.6
20260502003533 42 191 0.0 9.6 0.00 0.00 0.00 76 1023.9
20260502003033 42 191 0.0 9.6 0.00 0.00 0.00 76 1023.9
20260502002532 42 191 0.0 9.6 0.00 0.00 0.00 75 1023.8
20260502002032 42 191 0.0 9.6 0.00 0.00 0.00 75 1024.1
20260502001532 42 191 0.0 9.6 0.00 0.00 0.00 74 1024.0
20260502001031 43 191 0.0 9.6 0.00 0.00 0.00 74 1024.1
20260502000531 43 191 0.0 9.6 0.00 0.00 0.00 74 1024.1
20260502000031 43 191 0.0 9.6 0.00 0.00 0.00 73 1024.3
20260501235531 44 191 0.0 9.6 0.00 0.00 0.00 72 1023.9
20260501234516 44 191 0.0 9.6 0.00 0.00 0.00 73 1024.2
20260501234016 45 191 0.0 9.6 0.00 0.00 0.00 73 1024.4
20260501233516 45 191 0.0 9.6 0.00 0.00 0.00 73 1024.2
20260501233016 45 191 0.0 9.6 0.00 0.00 0.00 72 1024.1
20260501232515 45 191 0.0 9.6 0.00 0.00 0.00 71 1024.0
20260501232014 45 191 0.0 9.6 0.00 0.00 0.00 71 1024.2
20260501231515 45 191 0.0 9.6 0.00 0.00 0.00 71 1024.3
20260501231013 46 191 0.0 9.6 0.00 0.00 0.00 70 1024.8
20260501230513 46 191 0.0 9.6 0.00 0.00 0.00 70 1024.3
20260501230012 46 191 0.0 9.6 0.00 0.00 0.00 70 1024.5
20260501225513 47 191 0.0 9.6 0.00 0.00 0.00 71 1024.4
20260501225011 47 191 0.0 9.6 0.00 0.00 0.00 70 1024.4
20260501224511 47 191 0.0 9.6 0.00 0.00 0.00 69 1024.5
20260501223455 47 191 0.0 9.6 0.00 0.00 0.00 67 1024.8
20260501222955 48 191 0.0 9.6 0.00 0.00 0.00 67 1024.9
20260501222454 48 191 0.0 9.6 0.00 0.00 0.00 68 1024.7
20260501221954 48 191 0.0 9.6 0.00 0.00 0.00 68 1024.6
20260501221454 48 191 0.0 9.6 0.00 0.00 0.00 68 1024.9
20260501220953 49 191 0.0 9.6 0.00 0.00 0.00 67 1024.7
20260501220453 49 191 0.0 9.6 0.00 0.00 0.00 66 1025.1
20260501215953 49 191 0.0 9.6 0.00 0.00 0.00 66 1024.9
20260501215453 49 191 0.0 9.6 0.00 0.00 0.00 66 1024.8
20260501214952 49 191 0.0 9.6 0.00 0.00 0.00 66 1025.1
20260501213420 50 191 0.0 9.6 0.00 0.00 0.00 64 1024.9
20260501212919 50 191 0.0 9.6 0.00 0.00 0.00 63 1025.0
20260501212420 51 191 0.0 9.6 0.00 0.00 0.00 63 1025.3
20260501211920 51 191 0.0 9.6 0.00 0.00 0.00 63 1025.1
20260501211418 51 191 0.0 9.6 0.00 0.00 0.00 62 1025.2
20260501210918 51 191 0.0 9.6 0.00 0.00 0.00 61 1025.0
20260501210418 52 191 0.0 9.6 0.00 0.00 0.00 59 1025.1
20260501205400 53 191 0.0 9.6 0.00 0.00 0.00 58 1025.2
20260501204901 54 191 0.0 9.6 0.00 0.00 0.00 57 1025.0
20260501204359 54 191 0.0 9.6 0.00 0.00 0.00 57 1025.2
20260501203859 54 191 0.0 9.6 0.00 0.00 0.00 56 1025.1
20260501202328 55 191 0.0 9.6 0.00 0.00 0.00 53 1025.3
20260501201828 56 191 0.0 9.6 0.00 0.00 0.00 53 1025.1
20260501200257 57 191 0.0 9.6 0.00 0.00 0.00 50 1025.4
20260501194725 57 191 0.0 9.6 0.00 0.00 0.00 48 1025.3
20260501194224 58 191 0.9 9.6 0.00 0.00 0.00 48 1025.1
20260501193724 58 191 0.0 9.6 0.00 0.00 0.00 47 1025.6
20260501192708 59 181 0.9 9.6 0.00 0.00 0.00 46 1025.4
20260501192208 59 171 0.9 9.6 0.00 0.00 0.00 45 1025.4
20260501190121 61 188 0.9 9.6 0.00 0.00 0.00 42 1025.3
20260501185104 62 185 0.9 9.6 0.00 0.00 0.00 40 1025.3
20260501184604 62 217 0.9 9.6 0.00 0.00 0.00 39 1025.4
20260501184104 63 231 0.0 9.6 0.00 0.00 0.00 38 1025.1
20260501183604 63 231 0.0 9.6 0.00 0.00 0.00 38 1024.9
20260501182547 64 220 0.9 9.6 0.00 0.00 0.00 36 1025.1
20260501182047 64 205 0.9 9.6 0.00 0.00 0.00 36 1025.1
20260501181546 64 210 1.7 9.6 0.00 0.00 0.00 35 1025.2
20260501181046 65 204 0.0 9.6 0.00 0.00 0.00 35 1025.3
20260501180545 65 208 0.0 9.6 0.00 0.00 0.00 34 1025.1
20260501180044 65 217 0.9 9.6 0.00 0.00 0.00 34 1025.1
20260501175543 66 276 0.0 9.6 0.00 0.00 0.00 34 1024.6
20260501175043 66 276 0.0 9.6 0.00 0.00 0.00 34 1025.0
20260501174542 66 221 0.0 9.6 0.00 0.00 0.00 33 1024.9
20260501174042 66 211 0.9 9.6 0.00 0.00 0.00 33 1024.9
20260501173541 66 215 0.9 9.6 0.00 0.00 0.00 33 1025.1
20260501173040 67 232 1.7 9.6 0.00 0.00 0.00 33 1025.1
20260501172539 67 226 1.7 9.6 0.00 0.00 0.00 33 1024.9
20260501172038 67 225 2.6 9.6 0.00 0.00 0.00 32 1025.1
20260501171537 67 218 0.9 9.6 0.00 0.00 0.00 31 1025.2
20260501171036 68 221 2.6 9.6 0.00 0.00 0.00 30 1025.2
20260501170020 68 234 2.6 9.6 0.00 0.00 0.00 29 1025.4
20260501165520 69 233 1.7 9.6 0.00 0.00 0.00 29 1025.3
20260501164505 69 225 2.6 9.6 0.00 0.00 0.00 29 1025.2